Regional Weather Roundup
Issued by NWS

Home | Current Version | Previous Version | Graphics & Text | Print | Product List | Glossary On
Versions: 1 2 3 4 5 6 7 8 9 10 11 12 13 14 15 16 17 18 19 20 21 22 23 24 25 26 27 28 29 30 31 32 33 34 35 36 37 38 39 40 41 42 43 44 45 46 47 48 49 50
000
ASUS45 KSLC 300810
RWRUT

UTAH REGIONAL WEATHER ROUNDUP
NATIONAL WEATHER SERVICE SALT LAKE CITY UT
200 AM MDT SAT JUL 30 2016

UTZ001>011-023>025-300900-

NORTHERN UTAH

CITY           SKY/WX    TMP DP  RH WIND       PRES   REMARKS
BRIGHAM CITY     N/A     73  47  40 CALM      29.94S
HILL AFB       MOCLDY    76  39  26 E15       29.98S
LOGAN          CLEAR     62  49  62 CALM      29.97S
OGDEN          PTCLDY    77  40  26 S10       29.94F
PROVO AIRPORT  CLEAR     68  43  40 SE7       29.99S
SALT LAKE CITY MOCLDY    82  41  23 SE14      29.91F
VERNAL         CLEAR     66  38  35 W7        30.02R
WENDOVER       PTCLDY    82  37  20 N5        29.93F
HEBER CITY     CLEAR     55  41  58 CALM      30.09R
WEST JORDAN    CLEAR     75  39  27 S6        29.97F

$$

UTZ012>022-026-027-300900-

SOUTHERN/CENTRAL UTAH

CITY           SKY/WX    TMP DP  RH WIND       PRES   REMARKS
BLANDING       PTCLDY    72  43  35 NE6       30.17S
BRYCE CANYON   MOCLDY    63  39  41 SW12      30.27F
CEDAR CITY     PTCLDY    72  42  34 SE6       30.10F
DELTA          MOCLDY    77  37  24 S3        30.01S
MILFORD        PTCLDY    76  43  30 SW12      30.03F
MOAB/CYNLANDS  MOCLDY    80  31  16 CALM      29.92F
PRICE          PTCLDY    72  35  25 N10       30.08F
ST GEORGE      SUNNY     84  48  28 W5        29.90R

$$

REGIONAL REPORTS     COLORADO/ARIZONA

CITY           SKY/WX    TMP DP  RH WIND       PRES   REMARKS
CRAIG, CO      CLOUDY    54  42  64 E3        30.11F
GRAND JUNCTION CLOUDY    70  37  29 SE10      29.98S
RIFLE          CLOUDY    65  39  38 E5        30.07S
MONTROSE       CLEAR     71  38  29 SE9       30.08F
CORTEZ         PTCLDY    72  45  37 CALM      30.13R
PAGE, AZ       PTCLDY    88  43  20 VRB3      29.96S
GRAND CANYON   CLOUDY    66  50  56 VRB3      30.23S
KINGMAN        TSTM      79  61  53 E23G38    30.02R
FLAGSTAFF      CLOUDY    66  48  52 W6        30.25F

$$

REGIONAL REPORTS    NEVADA/IDAHO/WYOMING

CITY           SKY/WX    TMP DP  RH WIND       PRES   REMARKS
LAS VEGAS, NV  MOCLDY    96  48  19 S6        29.76F HX  92
ELY            PTCLDY    57  49  74 S10       30.17F
ELKO           PTCLDY    81  40  23 S9        30.04S
POCATELLO, ID  CLEAR     63  40  42 W6        29.94S
BURLEY         CLEAR     64  48  56 SW7       29.91S
EVANSTON, WY   CLOUDY    65  31  28 S6        30.19F
ROCK SPRINGS   CLEAR     62  41  46 E6        30.16S
KEMMERER         N/A     57  27  30 N7        30.21S

$$



USA.gov is the U.S. government's official web portal to all federal, state and local government web resources and services.